GFSNGP_prec_radar_150.txt.gz
Reflectivity
-20 -20 -13 -20 -20 -20 -20 -20 13 -20 -20 -20 -20 -20 -20 -20 -20 -20 -20 -20 -20 -20 -20 -20 -20 -20 1 -12 -14 7 12 20 8 12 10 25 15 5 1 -20 -20 -20 -20 -20
-20 -20 -20 -20 -20 -20 -20 -20 -20 -20 -20 -20 -20 -20 -20 -20 -20 -20 -20 -20 -20 -20 -20 -20 -20 -20 -20 -15 -10 3 9 15 20 24 27 21 15 -4 -19 -11 -20 -20 -20 -20
-20 -18 10 13 -20 -20 -20 -20 -20 -20 -20 -20 -20 -20 -20 -20 -20 -20 -20 -20 -2 9 -12 -20 -20 -20 -20 -20 -10 4 15 15 16 21 17 11 13 6 3 -4 -20 -20 -20 -20
-8 -16 11 -20 -20 -20 -20 -20 -20 -20 -20 -20 -20 -20 -20 -20 -20 -20 -15 -20 -20 1 29 21 10 -15 -19 -11 1 27 32 40 34 20 12 19 23 22 12 -1 -8 -12 -20 -20
1 -20 -20 -20 -20 -20 -20 -20 -20 -20 -20 -20 -20 -20 -20 -20 -20 -20 -20 -20 -18 0 30 38 34 21 17 38 38 40 29 29 23 25 24 23 18 13 6 1 0 -2 -9 -20
7 7 -0 -20 -20 -20 -20 -19 -20 -20 -20 -20 -20 -4 -20 -20 -20 -20 -20 -4 -10 19 30 34 33 31 39 40 39 27 29 25 28 26 22 19 9 1 -19 -20 -6 -1 -0 -1
21 17 -3 -20 -20 -20 17 -20 -20 -20 -20 -20 -20 -20 -20 -20 -20 -11 -20 -20 -4 -18 -6 3 27 35 37 37 31 35 28 26 22 22 20 18 12 6 -20 -13 -1 -1 -1 1
9 16 16 -20 -18 17 -1 -9 -20 -20 -20 -20 -20 -20 -20 -20 -9 -12 -20 -20 -20 -19 4 -6 2 18 32 30 31 26 29 29 22 20 13 13 6 1 -20 -10 -5 -2 -0 3
-20 -20 -16 -18 -20 -20 12 -20 -20 -20 -20 -20 -20 -20 -20 -9 9 9 -17 -20 -20 -20 -20 -20 -20 4 10 26 22 25 26 26 19 22 15 -16 -20 -20 -20 -20 -20 -1 -6 3
19 -20 -20 -20 -20 -20 -20 -20 -20 -20 -20 -20 6 -20 -18 0 11 9 -4 -20 -20 -20 -20 -20 -20 -15 2 8 14 13 25 23 20 22 15 -19 -20 -20 -20 -20 -20 -20 -20 0
-20 -20 -20 -20 -20 -19 -20 -20 -20 -20 -20 -20 -20 -20 -20 -20 -17 -10 -3 -20 -20 -20 -20 -20 -20 -20 -19 -4 15 18 20 24 20 13 8 -15 -20 -20 -20 -20 -20 -20 -20 -16
-20 -20 -17 6 1 -20 -20 -6 -20 -20 -20 -20 -20 -20 -20 -20 -20 -20 -20 -20 -20 -20 -20 -20 -20 -20 -14 -9 15 19 16 16 17 1 -6 -16 -20 -20 -20 -20 -20 -20 -20 -20
-20 6 1 -17 18 -17 -20 -19 -20 -20 -20 -20 -20 -20 -20 -20 -20 -20 -20 -20 -20 -20 -20 -20 -20 -16 -13 -11 -12 3 6 10 3 -1 -15 -20 -20 -20 -20 -20 -20 -20 -20 -20
-17 -9 -8 -20 -20 -20 -20 -20 -20 -20 -20 -20 -20 -20 -20 -20 -20 -20 -20 -20 -20 -20 -16 -5 -4 -4 3 7 6 3 5 8 10 2 -18 -20 -17 -8 -4 -6 -16 -1 -13 -2
-18 23 17 -11 -20 -17 -20 -20 -20 -20 -20 -20 -20 -20 -20 -20 -20 -20 -20 -19 -18 -17 -2 -3 -19 -3 1 -1 -0 1 5 8 7 2 2 3 2 2 2 1 1 0 1 8
-4 -17 -15 -6 -17 -20 -20 -20 -20 -20 -20 -20 -20 -20 -13 25 27 18 16 20 7 -16 -13 -19 -18 -1 3 1 4 4 3 -3 -1 0 1 2 -0 1 2 1 -3 1 0 7
-20 -20 -20 -20 -20 -20 -20 -20 -20 -20 -20 -20 -20 -20 -20 -20 -20 -20 -5 -2 -1 -3 1 -18 -1 1 3 2 -10 -1 -2 -0 -19 -1 -4 2 2 2 0 -20 -20 -20 -2 7
-20 -20 -20 -20 -20 -20 -20 -20 -20 -20 -20 -20 -20 -20 -20 -20 -15 -20 -20 -20 -10 -3 1 3 1 1 2 3 -1 -3 -2 -6 -2 -5 -3 0 -4 -20 -20 -20 -20 -20 -2 2
-20 -20 -20 -20 -20 -20 -20 -20 -20 -20 -20 -20 -20 -20 -20 -20 -20 -20 -20 -18 -17 -16 3 -2 -20 -11 -1 -3 -12 -4 -20 -8 -2 -1 -2 -6 -20 -20 -20 -20 -20 -20 -13 -16
-20 -20 -20 -20 -20 -20 -20 -20 -20 -20 -20 -20 -20 -20 -20 -20 -20 -20 -20 -16 -16 -16 -5 -17 -2 -3 -3 -9 -20 -20 -5 -1 -11 -20 -20 -20 -20 -20 -6 -15 -6 -2 1 0
-20 -20 -20 -20 -20 -20 -20 -20 -20 -20 -20 -20 -20 -20 -20 -20 -20 -20 -20 -16 -19 -20 -17 5 -14 -20 -20 -6 -19 -2 -1 1 1 -0 -7 -1 -1 -2 1 2 1 2 4 3
-20 -20 -20 -20 -20 -20 -20 -20 -20 -20 -20 -20 -20 -20 -20 -20 -20 -20 -20 -18 -20 -20 -20 -20 -8 -18 -20 -18 -9 1 -3 1 1 -1 1 2 2 1 1 3 2 3 2 4
-20 -18 -12 -20 -20 -20 -20 -20 -20 -20 -20 -20 -20 -20 -20 -20 -20 -14 -20 -20 -20 -20 -20 -14 -20 -20 -20 1 1 2 -1 -1 -1 -0 2 2 2 4 3 4 5 3 3 2
-20 -20 -20 -20 -20 -20 -20 -20 -20 -20 -20 -20 -20 -20 -20 -8 -20 -20 -20 -20 -20 -12 -6 -8 -12 -20 -19 -1 -1 1 1 2 -13 -0 0 -18 -0 -0 -2 -14 -18 -18 -18 -20
-20 -20 -20 -20 -20 -20 -20 -20 -20 -20 -20 -20 -20 -20 -20 -20 -5 -7 -3 -17 -20 -9 -6 -8 -20 -20 0 -0 0 0 1 -1 -13 -20 -20 -20 -20 -20 -20 -20 -20 -20 -20 -20
-20 -20 -20 -20 -20 -20 -20 -20 -20 -20 -20 -6 -8 -7 -20 -20 -20 -15 -3 -20 -17 -14 -7 -0 -2 -15 -2 -0 -20 -20 -10 -20 -20 -20 -20 -20 -20 -20 -20 -20 -20 -20 -20 -20
-20 -20 -20 -20 -20 -20 -20 -20 -10 -2 -8 -2 -2 -7 -6 -6 -5 -9 -15 -2 -4 -9 -7 -17 -1 -1 2 2 -11 -20 -20 -20 -20 -20 -20 -20 -20 -20 -20 -20 -20 -20 -20 -20

GFSNGP_prec_radar_153.txt.gz
Reflectivity
-20 -20 -20 -20 -20 -20 -20 -20 -15 -20 -20 -20 -20 -20 -20 -20 -20 -20 -20 -20 -20 -20 -20 -20 -20 -20 -20 -20 -20 -20 -20 -11 -16 -1 11 12 14 10 7 4 12 23 19 4
-20 -20 -7 -20 -20 -20 -20 -20 -20 -20 -20 -20 -20 -20 -20 -20 -20 -20 -20 -20 -20 -20 -20 -20 -20 -20 -20 -14 -20 -20 -13 -20 -20 -11 5 20 13 7 15 19 21 15 14 7
-20 -20 -1 13 -20 -20 -20 -20 -20 -20 -20 -20 -20 -20 -20 -20 -20 -17 -20 -20 -20 -20 -20 -20 -20 -11 -2 -16 -20 -20 -20 -20 -20 -20 -18 3 11 31 31 28 19 16 12 5
-20 -20 2 -20 -20 -20 -20 -20 -20 -20 -20 -20 -20 -20 -20 -20 -20 -20 -20 -20 -20 -20 -20 -20 -18 13 11 34 17 -7 -0 -3 -10 14 27 20 25 30 29 24 21 17 9 6
-20 -20 -20 -20 -20 -20 -20 -20 -20 -20 -20 -20 5 9 -20 -20 -20 -20 -20 -20 -20 -20 -20 -12 19 18 32 38 35 23 19 30 34 38 26 27 29 24 25 24 20 10 4 -5
-20 -9 -15 -20 -20 -20 -20 -18 -20 -20 5 -18 -20 1 4 -20 6 -20 -20 -20 -20 -20 -8 -0 16 13 22 36 34 36 36 32 35 30 29 26 21 19 22 22 14 3 -5 -8
-15 -0 -13 -20 -20 -20 -5 -20 -20 1 4 5 -20 -20 -10 -20 -20 -20 -20 -20 -20 -20 -18 2 9 -3 18 35 34 30 35 34 31 29 23 20 17 18 15 9 6 4 3 1
20 20 20 -20 -20 5 -16 33 9 1 11 -11 -20 -20 -20 -20 -18 -20 -20 -20 -20 -20 -10 -19 -20 -20 14 16 33 36 31 29 28 23 21 19 20 19 16 8 1 2 1 4
-20 -18 -20 -14 -19 -11 15 -20 -20 2 1 33 -20 -20 -16 -9 -5 -3 -17 -20 -20 -20 -20 -3 -20 -20 8 9 23 24 24 23 22 23 24 21 15 13 6 4 1 2 3 4
14 -20 -20 -17 -10 -20 -20 -20 -20 -20 3 -15 -12 -19 2 7 1 1 -9 -20 -20 -20 -20 -6 -20 -20 -6 12 20 11 19 22 23 22 21 21 19 -11 -19 -20 -6 -20 -2 2
5 -20 -20 -20 -5 -20 -20 -20 -3 -16 -20 -20 -20 -20 -20 -20 -20 -20 -20 -20 -20 -20 -20 -12 -20 -20 -20 1 6 15 24 26 21 23 19 19 10 0 -14 -20 -20 -20 -9 -8
-20 -20 -20 -20 -20 -20 -20 7 -18 2 -4 -20 -20 -20 -20 -20 -20 -20 -20 -20 -20 -20 -20 -20 -20 -20 -20 -10 -14 -15 6 18 18 22 15 6 3 6 -11 -20 -20 -20 -20 3
-20 -20 -20 -20 -20 -20 -1 -11 -16 -20 -6 -20 -20 -20 -20 -20 -20 -20 -20 -20 -20 -20 -20 -20 -20 -11 -2 5 -0 -3 -14 -1 17 19 14 -1 -20 -20 -20 -20 -20 -20 -20 -20
-20 -20 -20 -18 -20 10 24 2 20 -7 -18 -20 -20 -20 -20 -20 -20 -20 -20 -20 -20 -20 -11 -8 -20 -20 -6 6 4 7 4 6 15 9 -4 -14 -20 -16 -20 -20 -20 -20 -20 -20
-20 -14 -15 -13 9 28 22 23 -20 -20 -20 -20 -20 -20 -20 -20 -20 -20 -20 -20 -18 -19 -4 -3 -0 14 9 15 7 7 4 12 12 11 10 7 5 4 -2 -1 -1 -0 3 4
10 6 -6 21 11 -15 -14 -6 -20 -20 -20 -20 -20 -20 -20 -20 -20 -20 -9 4 13 14 30 18 14 18 24 28 26 8 9 6 8 9 7 11 9 -0 4 3 1 1 2 4
-1 13 8 -2 -18 -20 -20 -20 -20 -20 -20 -20 -20 -20 -20 -20 -20 -20 -20 0 -2 0 -1 4 -1 4 17 23 23 20 8 10 3 7 9 6 8 6 2 -2 -4 -0 3 7
-20 -20 -20 -20 -20 -20 -16 -20 -20 -20 -20 -20 -20 -20 -20 -20 -20 -20 -17 -3 -5 -2 2 -0 -1 3 6 8 14 12 8 9 9 6 7 5 2 -4 -2 -14 -20 -20 5 7
-20 -20 -20 -20 -20 -15 -20 -20 -20 -20 -20 -20 -20 -14 -20 -20 -20 -20 -20 -20 -20 -20 5 0 -20 3 5 7 -10 1 2 4 3 4 2 -8 3 -10 -20 -20 -20 -6 5 -5
-20 -20 -20 -6 -20 -13 -20 -20 -20 -20 -20 -20 -20 -20 -20 -20 -20 -20 -3 3 -0 -5 -4 -18 -15 -12 -16 -10 -20 -9 -16 -0 -0 5 7 5 5 -2 -1 -18 6 3 6 -4
-20 -20 -20 -20 -20 -20 -20 -20 -20 -20 -20 -20 -20 -20 -20 -20 -20 -20 -18 -2 -12 -19 -17 -14 1 1 -20 -3 -0 6 6 8 8 4 0 5 5 3 6 3 7 4 4 5
-20 -20 -20 -20 -20 -20 -20 -20 -20 -20 -20 -20 -20 -20 -20 -20 -20 -20 -20 -20 -9 3 -2 -16 -5 0 -11 -20 -5 -0 3 -0 6 3 -11 5 5 7 7 7 5 8 8 4
-20 -20 -20 -20 -12 -13 -18 -20 -20 -20 -20 -20 -20 -20 -20 -20 -18 -16 -6 -20 -20 0 -19 -17 2 -15 -18 3 -6 0 -9 -19 -20 -20 -20 -0 7 7 7 5 6 5 6 6
-20 -20 -20 -8 -20 -20 -20 -19 -20 -20 -20 -20 -20 -20 -20 -20 -20 -20 -20 -20 -20 -17 -8 -5 -19 -20 -11 10 9 8 8 8 9 4 -5 -18 9 9 9 8 6 6 6 6
-20 -20 -20 -20 -20 -20 -20 -20 -20 -20 -20 -20 -20 -20 -20 -20 4 -20 -20 -20 -9 -3 -2 4 -17 -6 10 9 8 10 10 10 10 10 6 4 6 5 5 2 5 4 1 -1
-20 -20 -20 -20 -20 -20 -20 -20 -14 -20 -6 3 -14 -20 -20 -20 -20 -17 -20 -15 -17 -5 -1 -0 2 9 9 9 7 7 8 -9 -4 0 2 2 4 3 2 -1 -1 -2 -2 -2
-20 -20 -20 -20 -20 -20 -20 -7 -0 -20 -4 -13 -20 -20 -20 -19 -13 -5 3 -20 -20 -15 -20 -5 1 3 7 4 -13 -18 -5 0 -0 -0 1 1 -1 -2 -3 -2 -0 -0 -1 -0

GFSNGP_prec_radar_156.txt.gz
Reflectivity
-20 -20 -20 -20 -20 -20 -20 -16 5 16 -20 -20 -20 -20 -20 -20 -20 -20 -20 -20 -20 -20 -20 -20 -20 -20 -20 -20 -20 -20 -19 9 -19 -20 -20 -20 -20 -15 9 14 11 13 15 11
-20 -20 -20 -20 -20 -20 -20 -20 1 -20 -20 -20 -20 -20 -20 -20 -20 -20 -20 -20 -20 -20 -20 -20 -20 -20 -20 10 5 -13 -8 -3 -10 -20 -20 -12 15 16 8 6 17 21 16 16
-20 -20 -20 -18 -20 -20 -20 -20 -20 -20 -20 -20 -20 -20 -20 -15 -20 -20 -20 -20 -20 -20 -20 -20 -20 -20 -20 -20 -1 -2 3 6 12 9 1 11 15 2 11 24 24 30 23 23
-20 -20 -19 -20 -20 -20 -20 -20 -20 -20 -20 -20 -20 -20 -20 -14 -19 -7 -20 -20 -20 -20 -20 -20 -20 -20 -20 -20 -1 10 19 18 30 30 33 33 24 23 34 31 24 24 22 23
-20 -20 -20 -20 -20 -20 -20 -20 -20 -20 -20 -20 -20 -20 -20 -20 -20 10 -12 -20 -20 -20 -20 -20 -20 -20 -20 6 23 24 28 26 24 30 26 26 26 29 27 23 24 24 21 22
-20 -19 -20 -20 -20 -20 -20 -20 -20 -8 -16 -20 -20 -20 19 27 20 -20 -20 -20 -20 -20 -20 -20 -20 -20 -20 11 15 16 30 32 33 33 20 26 27 27 23 23 24 18 20 15
-20 -20 -20 -20 -20 -20 -15 -19 -20 -20 -20 -20 -15 5 3 28 -1 -20 -20 -20 -20 -20 -20 -20 -20 -20 -20 -5 9 14 20 27 22 23 25 26 26 24 24 23 20 20 18 10
-5 -10 6 -20 -20 -2 -7 -20 5 -20 -20 -20 -20 28 26 -14 -20 -20 -20 -20 -20 -20 -20 -20 -20 -20 -20 2 5 11 10 13 14 18 20 22 21 20 22 21 18 16 5 4
-17 -2 -20 -20 -20 -20 16 23 -20 -20 16 -20 -20 -20 40 12 -17 -20 -20 -20 -20 -20 -20 -20 -20 -20 -20 6 7 -0 -6 4 13 14 19 18 21 22 21 19 21 10 0 -4
-14 -20 -20 -20 -20 -20 -20 -20 22 -20 -20 -5 7 22 28 8 0 -20 -20 -20 -20 -20 -20 -20 -20 -20 -20 5 2 -15 -13 5 13 16 19 23 22 20 20 19 10 -16 -5 -6
2 -13 -20 -20 -20 -20 -20 -20 -20 -20 -20 -14 18 20 -5 -18 -20 -20 -20 -20 -20 -20 -20 -20 -20 -20 -20 -6 -17 -16 -15 -4 1 14 17 19 18 17 15 -5 -20 -20 -20 -20
-20 -20 -20 -20 -20 -20 -20 -20 -20 -20 -20 -20 24 7 -20 -20 -20 -20 -20 -20 -20 -20 -20 -20 -20 -20 -20 -11 -16 -16 -18 -7 0 1 15 19 16 17 9 -7 -13 -6 -12 -20
-20 -20 -20 -20 -20 -20 -20 -20 -20 -20 -20 30 34 34 11 -20 -20 -20 -20 -20 -20 -20 -20 -20 -20 -20 -11 6 1 -19 -20 -9 -19 -16 -9 10 14 10 2 -15 -20 -20 -20 -20
-20 -20 -20 -20 -20 -20 -20 -20 -20 -20 -20 24 11 9 -18 -20 -20 -20 -20 -20 -20 -20 -7 -20 -20 -5 4 27 34 2 -2 -15 -7 -12 -7 10 13 6 -14 -20 -20 -19 -17 -20
-20 -20 -20 -20 -20 -20 -20 -10 13 21 37 24 -20 -20 -20 -20 -20 -20 -20 -20 -20 -20 -18 -20 -18 -4 2 27 28 12 12 10 4 10 9 -0 -2 -4 -7 -20 -20 -20 -15 -20
-20 -20 -14 -20 -20 -20 8 18 32 35 34 -20 -20 -20 -20 -20 -20 -20 -20 -20 -20 -20 -5 -17 2 11 29 31 27 20 15 12 11 11 9 5 -1 -7 -12 -20 -20 -20 -20 -20
-18 -20 24 28 31 31 7 24 6 -20 -14 -20 -20 -20 -20 -20 -20 -20 -19 -20 -20 -20 -20 -20 -6 1 9 -1 0 -2 -0 3 -3 -3 -1 4 -20 -20 -20 -20 -20 -20 -20 -20
3 -20 24 33 8 -3 -17 -8 2 -20 -20 -20 -20 -20 -20 -20 -20 -19 10 -20 -20 -19 -10 -20 -20 -20 -8 -9 -8 -10 -13 -16 -5 -9 -20 -18 -13 -20 -19 1 -20 -20 -20 -20
-20 -1 -20 -10 -20 -20 10 -19 -20 -20 -20 -20 -20 -20 -20 -20 -20 9 -12 -20 -20 -16 4 -20 -20 -14 5 -12 -15 -7 -5 -3 -6 1 -13 3 -5 -20 -20 -20 -20 -20 -19 -20
-20 -20 -20 -19 -20 -20 -20 -20 -20 -20 -20 -20 -20 -20 -20 -20 1 -20 -7 -19 -19 -20 -20 -20 -2 -1 -18 -20 -14 -1 -2 2 -5 -3 -18 -7 10 -18 -20 -20 -20 5 -19 -20
-20 -20 -20 -20 -20 -20 -20 -20 -20 -20 -20 -20 -20 -20 -20 -7 -20 -20 -20 -20 -20 -10 -17 -3 -17 -20 -20 -20 -20 -20 -20 -4 -6 4 -19 -5 -20 -20 -19 3 6 8 -12 -19
-20 -20 -20 -20 -20 -15 -12 -7 -20 -20 -20 -20 -20 -20 -20 -20 -20 -20 -20 -20 -12 10 -4 -5 -20 3 -11 -10 -17 -15 -20 -11 -10 -13 -11 -3 -20 -3 5 -20 -20 -18 -6 -20
-20 -20 -20 -20 -20 -17 -5 -20 -20 -20 -20 -20 -20 -20 -20 -20 -20 -20 -20 -19 -20 1 -19 -7 -11 0 -8 6 -20 -20 -20 -1 -1 -14 -16 10 8 11 10 2 6 7 -14 -20
-20 -20 -20 -20 -20 -20 -20 -20 -20 -20 -20 -20 -20 -20 -20 -20 -20 -20 -20 -20 3 -2 -12 -10 -20 -20 -20 4 -19 -9 -15 -10 -20 5 -0 7 8 9 -4 -20 0 0 -17 -20
-20 -20 -20 -19 -2 -20 -20 -20 -20 -20 -20 -20 -20 -20 -20 -20 -11 -20 -20 -20 -18 1 -20 -19 -20 -20 10 0 5 3 5 11 11 2 -20 -1 -2 -10 5 -11 2 -7 -20 -20
-20 -20 -20 -20 -20 -20 -20 -20 -16 -20 -20 -9 -2 -20 -20 -20 -20 -20 -20 -7 -17 -0 -20 -8 2 5 4 7 9 9 -3 -20 -12 -5 -4 -2 -20 -10 -20 -20 -13 -20 -20 -20
-20 -7 -20 -20 -20 -20 -20 -15 -20 -20 -20 -20 -20 -20 -20 -20 -14 -8 6 -20 -17 -13 -3 -0 7 3 1 -6 -1 2 -20 -20 -20 -20 -1 -20 -14 -13 -9 -20 -20 -20 -20 -20

GFSNGP_prec_radar_159.txt.gz
Reflectivity
-20 -20 -20 -20 -20 -20 -20 -20 -20 -20 -16 -20 -20 -20 -20 -20 -20 -20 -20 -20 -20 -20 -20 -20 -20 -20 -20 -20 -20 -20 -20 -17 -3 5 14 16 1 -20 -20 3 -8 -16 -18 -12
-20 -20 -20 -20 -20 -20 -20 -20 -20 -20 -20 -20 -20 -20 -20 -20 -20 -20 -20 -20 -20 -20 -20 -20 -20 -20 -20 -20 -20 -20 -20 -20 -6 -1 1 2 9 14 10 31 22 9 5 9
-20 -20 -20 -20 -20 -20 -20 -20 -20 -20 -20 -20 -20 -20 -20 -20 -20 -20 -20 -20 -20 -20 -20 -20 -20 -20 -20 -20 -20 -20 -20 -20 -20 9 18 17 20 26 33 29 32 28 18 25
-20 -20 -20 -20 -20 -20 -20 -20 -20 -20 -20 -20 -20 -20 -20 -20 -20 -20 -20 -20 -20 -20 -20 -20 -20 -20 -20 -20 -20 -20 -20 -19 8 11 17 23 25 26 24 26 25 25 21 16
-20 -20 -20 -20 -20 -20 -20 -20 -20 -20 -20 -20 -20 -20 -20 -20 -20 -20 -20 -20 -20 -20 -20 -20 -20 -20 -20 -20 -20 -20 -20 -12 0 2 22 32 30 28 24 21 20 22 25 25
-20 -20 -20 -20 -20 -20 -20 -20 -20 -20 -20 -20 -20 -20 -20 -20 -20 -20 -20 -6 8 -4 -20 -20 -20 -20 -20 -20 -20 -20 -20 -10 4 18 13 29 25 19 19 19 19 17 22 24
-20 -20 -20 -20 -20 -20 -20 -20 -20 -20 -20 -20 -20 -20 -20 -20 -20 -13 -8 -18 -16 -20 -20 -20 -20 -20 -20 -20 -20 -20 -20 -4 -4 -10 0 9 13 13 16 18 16 20 23 21
-20 -20 -20 -20 -20 -20 -20 -14 -20 -20 -20 -20 -20 -20 -20 -20 -16 15 13 11 -10 -20 -20 -20 -20 -20 -20 -20 -20 -20 -20 -20 -20 -14 1 4 10 15 14 14 13 20 20 20
-20 -20 -20 -20 -20 -20 -1 -20 -20 -20 -20 -20 -20 -18 -20 -20 -20 7 6 5 -8 -20 -20 -20 -20 -20 -20 -20 -20 -20 -20 -17 -17 -17 -7 3 2 9 15 15 16 18 22 19
-20 -20 -20 -20 -20 -20 -20 -19 -20 -20 -20 -20 -20 -20 -20 18 -20 -3 12 -4 -20 -20 -20 -20 -20 -20 -20 -20 -19 -20 -20 -16 -15 -18 -14 2 6 6 11 12 16 17 18 19
-20 -20 -20 -20 -20 -20 -20 -20 -20 -20 -20 -20 -20 -20 -20 19 -12 -20 -18 -20 -20 -20 -20 -20 -20 -20 -20 -8 -20 -16 -16 -17 -7 -9 -15 -12 9 11 8 11 13 12 12 2
-20 -20 -20 -20 -20 -20 -20 -20 -20 -20 -20 -20 -20 -2 -20 -19 32 -10 -20 -20 -20 -20 -20 -20 -20 -20 -17 -19 -18 -15 -15 -14 -20 -17 -15 -18 -17 13 18 15 11 12 -3 -20
-20 -20 -20 -20 -20 -20 -20 -20 -20 -20 -20 -20 -20 -20 -7 36 35 4 -20 -20 -20 -20 -20 -20 -20 -20 -20 -14 -15 -14 -11 10 -20 0 -1 -17 -20 1 11 14 5 -7 -20 -20
-20 -20 -20 -20 -20 -20 -20 -20 -20 -20 -20 -20 -20 -19 30 31 24 13 -20 -20 -20 -17 -20 -20 -20 -20 -20 -19 -19 -8 30 16 6 12 12 6 4 6 5 11 -3 1 7 -18
-20 -20 -20 -20 -20 -20 -20 -20 -20 -20 -20 -20 -17 38 27 -20 6 -17 -20 -20 -20 -12 9 -20 -20 -12 -19 -10 -20 0 15 1 -0 4 4 -8 3 5 9 13 4 -20 -15 2
-20 -20 -20 -20 -20 -20 -20 -20 -20 9 36 26 39 26 -0 -20 -20 -20 -20 -19 10 5 -20 -20 -20 -4 8 -9 -11 -3 8 19 17 8 3 -2 5 11 10 -20 -20 -20 -20 -20
-20 -20 -10 25 25 -14 -20 -20 33 15 27 29 3 -20 -20 -20 -20 -20 6 8 -20 -20 -19 -20 -14 -4 -15 -20 -20 -20 -19 -20 -20 -17 -16 -20 -20 -20 -20 -20 -20 -20 -20 -20
-20 -3 29 12 -19 6 -17 1 26 -18 -20 -20 -20 -20 -20 -20 -20 -1 9 -7 -19 -17 -20 -19 3 8 -20 -20 -20 -20 -20 -20 -20 -20 -20 -20 -20 -20 -20 -20 -20 -20 -20 -20
-20 -19 1 5 3 -11 -15 3 -0 -20 -20 -20 -20 -20 -20 -20 -20 4 -12 -20 -20 -20 -20 -20 5 7 -10 -20 -20 -20 -20 -20 -20 -20 -20 -20 -20 -20 -20 -20 -20 -20 -20 -20
-20 -20 -20 -13 -14 22 -20 -20 -20 -20 -20 -20 -20 -20 -20 -2 -14 -20 -19 -20 -20 -20 -20 -20 -20 -20 -20 -20 -20 -20 -20 -20 -20 -20 -20 -20 -20 -20 -20 -20 -20 -20 -20 -20
-20 9 -15 3 -9 -20 -20 -20 -20 -20 -20 -20 -20 -20 -20 -5 -20 -20 -20 -20 -20 -14 -17 2 -19 -20 -20 -20 -20 -20 -20 -20 -20 -20 -20 -20 -20 -20 -20 -20 -20 -20 -20 -20
-4 9 6 10 -1 -1 -20 -20 -20 -20 -20 -20 -20 -20 -20 -20 -20 -20 -20 -20 -20 10 -3 -13 -20 0 -17 -20 -20 -6 -17 -20 -17 -20 -13 -20 -20 -20 -20 -20 -20 -20 -20 -20
-7 4 8 -2 9 -9 9 7 -20 -20 -20 -20 -20 -20 -20 -20 -20 -20 -20 -16 -20 4 -8 -20 -2 9 6 -20 -20 -5 3 -6 -20 -20 -15 -20 -20 -20 -20 -20 -20 -20 -20 -20
-8 11 12 1 7 9 -12 -20 -15 -16 -20 -20 -20 -20 -20 -20 -20 -20 -20 5 8 5 -6 -10 -14 1 -20 -20 -20 -20 1 1 -14 -17 -19 -20 -20 -20 -20 -20 -20 -20 -20 -20
4 -20 -20 -20 -17 -20 -20 -20 -20 -20 -20 -20 -20 -20 -20 -20 -20 -20 -20 -20 6 -0 -20 -4 -1 -20 -20 -20 -20 -20 -20 -20 -20 -20 -20 -20 -20 -20 -20 -20 -20 -20 -20 -20
-20 -20 -20 -10 -20 -20 -20 -20 -20 -20 -20 2 -20 -20 -20 -20 -20 -19 -20 -5 -20 0 -20 -20 -20 -20 -20 -20 -20 -20 -20 -20 -20 -20 -20 -20 -20 -20 -20 -20 -20 -20 -20 -20
-20 1 -20 -20 -20 -20 -20 -14 -20 -20 -9 -20 -20 -20 -20 -20 -15 -7 4 -19 -20 -20 -20 -20 -20 -20 -20 -20 -20 -20 -20 -20 -20 -20 -20 -20 -20 -20 -20 -20 -20 -20 -20 -20

GFSNGP_prec_radar_162.txt.gz
Reflectivity
-20 -20 -20 -20 -20 -20 -13 8 10 -19 12 -18 -20 15 -12 -15 -16 -20 -20 -20 -20 -20 -20 -20 -20 -20 -20 -20 -20 -20 -20 -20 -20 -20 -20 -20 -20 -20 -8 -16 22 20 15 12
1 0 9 -20 -20 -20 -20 -20 -20 -20 -20 -20 -20 -20 -20 -20 -20 -20 -20 -20 -20 -20 -20 -20 -20 -20 -20 -20 -20 -20 -20 -20 -20 -20 -20 -20 2 14 16 1 20 25 27 30
-3 5 4 -20 -20 -20 -20 -20 -20 -20 -20 -20 -20 -20 -20 -20 -20 -20 -20 -20 -20 -20 -20 -20 -20 -20 -20 -20 -20 -20 -20 -20 -20 -20 -20 -20 -17 21 19 12 24 28 15 10
-3 -9 11 -20 -20 -20 -20 -20 -20 -20 -20 -20 -20 -20 -20 -20 -20 -20 -20 -20 -20 -20 -20 -20 -20 -20 -20 -20 -20 -20 -20 -20 -20 -20 -20 -20 -0 18 11 30 28 14 9 14
-20 -20 -20 -20 -20 -20 -20 -20 -20 -20 -20 -20 -20 -20 -20 -20 -20 -20 -20 -20 -20 -16 10 -17 -20 -20 -20 6 -20 -20 -20 -20 -20 -20 -20 -19 8 8 18 27 24 14 -18 16
-20 -20 -20 -20 -20 -20 -20 -20 -20 -20 -20 -20 -20 -20 -20 -20 -20 -20 -20 -20 -20 -20 -20 -20 -20 -20 -5 -5 -20 -20 -20 -20 -20 -20 -20 -18 -8 9 12 7 6 5 16 14
-20 -20 -20 -20 -20 -20 -20 -20 -20 -20 -20 -20 -20 -20 -20 -20 -20 -20 -20 -20 -20 -20 -17 -14 -20 -20 -20 -20 -20 -20 -20 -20 -5 -20 -16 -10 -10 -14 -13 -16 13 15 16 14
-9 3 -14 -20 -20 -20 -20 -20 -20 -20 -20 -20 -20 -20 -20 -20 -20 -20 -20 -20 -20 -20 9 0 -4 -19 -20 -20 -20 -20 -20 -15 -20 -17 -9 -12 -20 -20 -7 10 10 9 -0 9
-20 -20 -20 -20 -20 -20 -20 -20 -20 -20 -20 -20 -20 -20 -20 -20 -20 -20 -20 -20 -20 -20 -20 -20 -20 -20 -20 -20 -20 -20 -20 -19 -18 -20 -20 -17 -4 -20 -19 4 10 11 10 12
-20 -20 -20 -20 -20 -20 -20 -20 -20 -20 -20 -20 -20 -20 -20 -20 -20 -20 12 -20 -20 -20 -20 -20 -20 -20 -20 -20 -20 -20 -18 -16 -20 -16 -14 -19 5 -9 -20 3 8 9 7 8
-20 -20 -20 -20 -20 -20 -20 -20 -20 -20 -20 -20 -20 -20 -20 -20 -20 -20 -20 -20 -20 -20 -20 -20 -20 -20 -20 -20 -20 -8 -14 -16 -16 -20 -18 -20 -16 3 -7 13 11 2 1 6
-20 -20 -20 -20 -20 -20 -20 -20 -20 -20 -20 -20 -20 -20 -20 -20 -20 -20 -20 -20 -20 -20 -20 -20 -20 -20 -20 -20 -20 -20 -18 -17 -19 -20 -20 -15 1 5 12 10 20 15 6 -19
-20 -20 -20 -20 -20 -20 -20 -20 -20 -20 -20 -20 -20 -20 -20 -20 -20 -17 -20 -20 -19 4 -11 -20 -20 -20 -20 -20 -17 -15 -19 -20 -16 -19 -20 -4 14 5 3 13 19 17 10 10
-20 -20 -20 -20 -20 -20 -20 -20 -20 -20 -20 -20 -20 -20 -20 -20 -20 -20 -8 -19 4 -17 -20 -20 -20 -20 -20 -17 -18 -20 -20 -17 -10 -12 -20 16 13 -2 -3 10 14 16 14 -6
-20 -20 -20 -20 -20 -20 -20 -20 -20 -20 -20 -20 -20 -20 -20 -20 -20 -4 20 1 -20 -20 -20 -20 -20 -20 -20 -20 -20 -20 -20 -20 -20 -20 -17 7 -0 -8 -2 10 12 10 2 -3
-20 -20 -20 -20 -20 -20 -20 -20 -20 -20 -20 -20 -20 -20 -20 -20 -20 -20 -19 -20 -20 -20 -6 -19 -19 7 -20 -9 -20 -20 -20 -20 -7 7 16 -15 -20 -20 -19 -20 -20 -20 -20 -20
-20 -20 -20 -20 -20 -6 -1 8 -6 -20 -19 31 18 -4 -20 -13 6 5 -20 -20 -20 -20 -20 -20 -8 8 10 -6 -20 -20 -20 -20 -20 -20 -20 -20 -20 -20 -20 -20 -20 -20 -20 -20
-20 -10 7 3 17 20 28 25 6 2 27 29 13 14 9 -20 -20 -20 -20 -20 -20 -20 -13 -15 3 8 -19 -20 -20 -20 -20 -18 -20 -20 -20 -20 -20 -20 -20 -20 -20 -20 -20 -20
-20 -20 -19 10 -4 6 7 1 -20 -6 -20 -20 -14 -20 -20 -20 -20 -20 -20 -20 -20 -20 -20 2 8 4 -20 -17 -7 -20 -20 -20 -20 -20 -20 -20 -20 -20 -20 -20 -20 -20 -20 -20
-20 -20 -20 -20 -10 -11 11 6 -20 -20 -20 -20 -20 -20 -20 -20 -20 -20 -20 -20 -20 -20 -20 -14 -2 -4 -20 -12 -17 -20 -20 -20 -20 -20 -20 -20 -20 -20 -20 -20 -20 -20 -20 -20
-8 -9 -17 -20 -20 -20 1 -20 -20 -20 -20 -20 -20 -20 -20 -20 -20 -20 -20 -20 -19 -16 -19 -18 -20 -20 -20 -20 -20 -20 -20 -20 -20 -20 -20 -20 -20 -20 -20 -20 -20 -20 -20 -20
1 8 11 -20 -20 -20 -20 -20 -20 -20 -20 -20 -20 -20 -20 -20 -20 -20 -20 -20 -20 10 -3 -20 -20 -9 -20 -20 -20 -20 -20 -20 -20 -20 -20 -20 -20 -20 -20 -20 -20 -20 -20 -20
5 5 6 15 -0 6 7 -6 -8 -20 -20 -20 -20 -20 -20 -20 -20 -20 -20 -18 -20 2 -19 -20 3 5 -14 -20 -20 -20 -20 -20 -20 -20 -20 -20 -20 -20 -20 -20 -20 -20 -20 -20
8 3 6 10 -15 0 6 3 -19 -13 -2 -20 -20 -20 -20 -20 -20 -20 -20 4 10 4 -3 -16 -19 7 -10 -20 -20 -20 -20 -20 -20 -20 -20 -20 -20 -20 -20 -20 -20 -20 -20 -20
15 -9 -14 -20 -18 -16 -12 3 -6 11 -4 -20 -20 -20 -20 -20 -20 -20 -20 -18 7 1 -20 1 -3 -3 -20 -20 -20 -20 -20 -20 -20 -20 -20 -20 -20 -20 -20 -20 -20 -20 -20 -20
-20 -20 -20 -13 -20 -20 -20 -20 -20 -20 -20 -20 -20 -20 -20 -20 -20 -20 -20 -5 -20 -1 -19 -20 -20 -20 -20 -20 -20 -20 -20 -20 -20 -20 -20 -20 -20 -20 -20 -20 -20 -20 -20 -20
-20 7 -14 -20 -20 -20 -20 -16 -20 -20 -20 -20 -20 -20 -20 -20 -15 -13 7 -20 -20 -20 -20 -20 -18 -20 -20 -20 -20 -20 -20 -20 -20 -20 -20 -20 -20 -20 -20 -20 -20 -20 -20 -20

GFSNGP_prec_radar_165.txt.gz
Reflectivity
-20 -20 -20 -20 -20 -20 -20 -20 -20 -20 -20 -20 6 14 19 3 -18 -13 -19 3 12 -20 -20 -20 -20 -20 -20 -20 -20 -20 -20 -20 -20 -20 -20 -20 -20 -20 -20 -20 -13 5 2 18
-14 -20 -20 -20 -20 -20 -20 -20 -20 -20 -20 -20 -10 7 -15 -20 -20 -20 -20 -20 -20 -20 -20 -20 -20 -20 -20 -20 -20 -20 -20 -20 -20 -20 -20 -20 -20 -20 -20 -20 -20 -18 -3 15
-12 -20 -20 -20 -20 -20 -20 -20 -20 -20 -20 -20 -20 -20 -20 -20 -20 -20 -20 -20 -20 -20 -20 -20 -20 -20 -20 -20 -20 -20 -20 -20 -20 -20 -20 -20 -20 -20 -18 -2 10 -14 -5 22
16 -10 7 -20 -20 -20 -20 -20 1 -11 -20 -20 -20 -20 -20 -20 -20 -20 -20 -20 -20 -20 -20 -20 -20 -20 -20 -20 -20 -20 -20 -20 -20 -20 -20 -20 -20 -20 -4 -2 8 -20 10 18
20 12 -14 -20 -20 -20 -20 -6 -6 -20 -20 -20 -20 -20 -20 -20 -20 -20 -20 -20 -20 -20 -20 -19 -13 -20 -20 -14 -14 -17 -20 -20 -20 -20 -20 -20 -20 -19 -11 6 -3 -0 6 12
9 2 -7 -20 -20 -20 -20 -20 -20 -20 -20 -20 -20 -20 -20 -20 -20 -20 -20 -20 -20 -20 -20 -20 -20 -20 -18 -18 -4 4 -20 -20 -20 -20 -20 -20 -20 -18 3 6 -15 -18 -11 -3
-20 -17 -20 -20 -20 -20 -20 -20 -20 -20 -20 -20 -20 -20 -20 -20 -20 -20 -20 -20 -20 -20 -20 -20 -20 -20 -20 -17 -10 -20 -16 -20 -20 -16 -20 -20 -20 -15 -16 -16 -11 3 -17 -20
-17 -20 -20 -20 -20 -20 -20 -20 -20 -20 -20 -20 -20 -20 -20 -20 -20 -20 -20 -20 -20 -20 -20 -20 -20 -20 -20 -20 -20 2 -20 -20 -20 -20 -20 -20 -20 -18 -20 -20 -19 -9 -11 -16
-20 -20 -20 -20 -20 -20 -20 -20 -20 -20 -20 -20 -20 -20 -20 -20 -20 -20 -20 -20 -20 -20 -20 -20 -20 -20 -20 -20 -20 -20 -20 -20 -20 -20 -20 -20 -20 -20 -20 -20 -20 -0 1 -4
-20 -20 -20 -20 -20 -20 -20 -20 -20 -20 -20 -20 -20 -20 -20 -20 -20 -20 -20 -20 -20 -20 -20 -20 -20 -20 -20 -20 -20 -12 -20 -20 -20 -20 -20 -20 -20 -20 -20 -20 -20 1 -5 8
-20 -20 -20 -20 -20 -20 -20 -20 -20 -20 -20 -20 -20 -20 -20 -20 -20 -20 -20 -20 -20 -20 -20 -20 -20 -20 -20 -20 -20 -20 -20 -20 -20 -17 -18 -18 -19 -18 -14 -18 -16 -3 -9 15
-20 -20 -20 -20 -20 -20 -20 -20 -20 -20 -20 -20 -20 -20 -20 -20 -20 -20 -20 -20 -20 -20 -20 -20 -20 -20 -20 -20 -20 -20 -17 -18 -17 -19 -20 -20 -20 -2 6 -2 -3 -10 2 13
-20 -20 -20 -20 -20 -20 -20 -20 -20 -20 -20 -20 -20 -20 -20 -20 -20 -20 -20 -20 -20 -20 -20 -20 -20 -20 -13 -20 -20 -20 -19 -15 -17 -20 -20 -20 -17 5 10 10 6 6 12 13
-20 -20 -20 -20 -20 -20 -20 -20 -20 -20 -20 -20 -20 -20 -20 -20 -20 -20 -20 -20 -20 -20 -20 -20 -14 -20 -20 -20 -20 -17 -20 -20 -20 -20 -20 -18 -17 10 8 16 16 10 14 14
-20 -20 -20 -20 -20 -20 -20 -20 -20 -20 -20 -20 -20 -20 -20 -20 -20 -20 -20 -20 -20 -20 -20 -20 -20 -20 -20 -20 -20 -20 -20 -20 -20 -19 -19 -20 -19 -4 -3 8 11 11 12 13
-20 -20 -20 -20 -20 -20 -20 -20 -20 -20 -20 -20 -20 -20 -20 -20 -20 -20 -20 -20 -20 -20 -20 -20 6 -18 -20 -20 -20 -20 -20 -20 -20 -20 -4 -4 -10 -19 -18 -18 -17 -13 -15 -20
-20 -20 -20 -20 -20 -20 -20 -20 -20 -20 -20 -20 -20 4 -10 -20 -20 -20 -20 -9 -20 -20 -20 -19 -20 -20 -20 -20 -20 -20 -20 -20 -20 -20 -15 -16 -17 -20 -20 -20 -20 -20 -20 -20
-20 -20 -20 -20 -20 -18 -10 25 10 11 7 -3 14 21 18 -4 -20 -20 -20 -20 -20 -20 -20 -20 -20 -18 -5 -6 -20 -20 -20 -20 -20 -20 -20 -20 -20 -20 -20 -20 -20 -20 -20 -20
-20 -20 -20 -20 -13 0 -11 -20 -11 16 21 -4 -10 -7 -8 -8 -20 -20 -20 -20 -20 -20 -20 -18 8 4 -20 -17 -16 -20 -20 -20 -20 -20 -20 -20 -20 -20 -20 -20 -20 -20 -20 -20
-20 -20 -20 -20 -20 -20 -20 -20 -12 -20 -20 -20 -20 -20 -20 -20 -20 -20 -20 -20 -20 -20 -20 -15 -16 -20 -20 -14 3 -18 -20 -20 -20 -20 -20 -20 -20 -20 -20 -20 -20 -20 -20 -20
-20 -17 -1 -20 -20 -20 -20 -20 -20 -20 -20 -20 -20 -20 -20 -20 -20 -20 -20 -20 -20 -20 -17 7 -17 1 -20 -1 -14 -20 -20 -20 -20 -20 -20 -20 -20 -20 -20 -20 -20 -20 -20 -20
-20 -11 -0 -20 -20 -20 -20 -20 -20 -20 -20 -20 -20 -20 -20 -20 -20 -20 -20 -20 -20 7 -7 -20 -20 -8 -11 -20 -20 -20 -20 -20 -20 -20 -20 -20 -20 -20 -20 -20 -20 -20 -20 -20
-14 -20 -20 -20 -4 11 -20 -18 -20 -20 -20 -20 -20 -20 -20 -20 -20 -20 -20 -20 -20 -11 -20 -20 4 5 -4 -20 -20 -20 -20 -20 -20 -20 -20 -20 -20 -20 -20 -20 -20 -20 -20 -20
-5 6 5 -13 -13 -20 -20 -20 -20 -20 -20 -20 -20 -20 -20 -20 -20 -20 -20 -19 -20 -18 -4 -0 -2 9 5 -20 -20 -20 -20 -20 -20 -20 -20 -20 -20 -20 -20 -20 -20 -20 -20 -20
-1 3 5 -20 -19 -17 -16 -3 2 -10 -1 -2 -16 -7 -19 -20 -20 -20 -20 -19 -5 -1 -20 0 -1 8 -17 -20 -20 -20 -20 -20 -20 -20 -20 -20 -20 -20 -20 -20 -20 -20 -20 -20
-20 -20 -20 -18 -20 -20 -20 -20 -13 -8 -20 -20 -20 -20 -20 -20 -20 -18 -20 -7 -20 1 -18 -19 -20 -17 -20 -20 -20 -20 -20 -20 -20 -20 -20 -20 -20 -20 -20 -20 -20 -20 -20 -20
-6 3 -20 -20 -20 -20 -20 -20 -20 -20 -20 -20 -20 -20 -20 -20 -18 -20 -2 -20 -20 -18 -19 -19 -20 -20 -20 -20 -20 -20 -20 -20 -20 -20 -20 -20 -20 -20 -20 -20 -20 -20 -20 -20

GFSNGP_prec_radar_171.txt.gz
Reflectivity
-20 -20 -20 -20 -20 -20 -1 -12 -20 -20 -20 -20 -20 -20 -20 -20 -20 -20 -20 -20 -20 -20 -20 -20 -20 -20 -20 -20 -20 -20 -20 -20 -20 -20 -20 -20 -20 -20 -20 -20 -20 -20 -20 -20
-20 -20 -20 -20 -20 -20 -20 -20 -20 -20 -20 -20 -20 -20 -20 -20 -20 -20 -20 -20 -20 -20 -20 -20 -20 -20 -20 -20 -20 -20 -20 -20 -20 -20 -20 -20 -20 -20 -20 -20 -20 -20 -20 -20
12 1 -20 -14 -20 -20 -20 -20 -20 -20 -20 -20 -20 -20 -20 -20 -20 -20 -20 -20 -20 -20 -20 -20 -20 -20 -20 -20 -20 -20 -20 -20 -20 5 -20 -20 -20 -20 -20 -20 -20 -20 -20 -20
14 4 -8 -20 -20 -20 -20 -20 -20 -20 -20 -20 -20 -19 -20 -20 -20 -20 -20 -20 -20 -20 -20 -20 -20 -20 -20 -20 -20 -20 -20 -20 -20 -20 -20 -20 -20 -20 -20 -20 -20 -20 -20 -20
11 11 -20 -20 -20 -20 -20 -20 -20 -20 -20 -14 -19 -20 -20 -20 -20 -20 -20 -20 -20 -20 -20 -20 -20 -20 -20 -20 -20 -20 -20 -14 -20 -20 -20 -20 -20 -20 -15 -20 -13 -20 -20 -20
11 18 11 -20 -20 3 2 -20 -20 -20 -19 9 15 -20 -20 -20 -20 -20 -20 -20 -20 -20 -20 -20 -20 -20 -20 -18 -20 -20 8 8 -8 -1 -20 -20 -20 -20 4 -1 -20 -20 -18 -18
5 14 1 -18 -12 -19 -20 -20 -18 -16 -0 9 -10 -20 -20 -20 -20 -20 -20 -20 -20 -20 -20 -20 -20 -20 -20 -19 -20 3 5 8 9 8 -13 -20 -20 -20 -20 -20 -20 -20 -20 -7
17 20 25 3 -11 -3 -16 -20 -20 -20 -18 -17 -20 -19 -19 -20 -20 -20 -20 -20 -20 -20 -20 -20 -20 -20 -20 -20 -20 -20 -20 -20 -17 -3 -20 -20 -20 -20 -20 -20 -20 -20 -20 -8
-14 -19 -20 -20 -20 -10 -20 -20 -20 -20 -15 -9 -13 -13 -18 -20 -15 -9 -18 -20 -20 -20 -20 -20 -20 -20 -20 -20 -20 -20 -20 -20 -19 -20 -20 -20 -20 -20 -20 -20 -20 -20 -20 -20
-11 2 -20 -20 -20 -20 -20 -20 -20 -20 -20 -20 -20 -15 -2 -0 -20 -20 -20 -20 -20 -20 -20 -20 -20 -20 -20 -20 -20 -20 -20 -20 -20 -20 -18 -20 -20 -20 -20 -20 -20 -20 -16 -2
-20 -20 -20 -20 -20 -20 -20 -20 -20 -20 -20 -20 -20 -20 -19 -20 -20 -20 -20 -20 -20 -20 -20 -20 -20 -20 -20 -20 -20 -20 -20 -20 -5 -20 -20 -20 -20 -20 -20 -20 -20 -20 -20 -20
-20 -20 -20 -20 -20 -20 -20 -20 -20 -20 -20 -20 -20 -20 -20 -20 -20 -20 -20 -20 -20 -20 -20 -20 -20 -20 -20 -20 -20 -20 -20 -20 -15 -18 -19 -18 -18 -11 -20 -20 -20 -20 -20 -20
-20 -20 -20 -20 -20 -20 -20 -20 -20 -20 -20 -20 -20 -20 -20 -20 -20 -20 -20 -20 -20 -20 -20 -20 -20 -20 -20 -20 -20 -20 -20 -20 -18 -20 -19 -19 -20 -20 -17 4 6 -9 -20 -20
-20 -20 -20 -20 -20 -20 -20 -20 -20 -20 -20 -20 -20 -20 -20 -20 -20 -20 -20 -20 -20 -20 -20 -20 -20 -20 -19 -20 -20 -20 -20 -11 -20 -20 -20 -20 -20 -20 -1 -5 -10 3 -6 -4
-20 -20 -20 -20 -20 -20 -20 -20 -20 -20 -20 -20 -20 -20 -20 -20 -20 -20 -20 -20 -20 -20 -20 -20 -20 -20 2 -20 -20 -20 -20 -20 -20 -20 -20 -20 -20 -20 -20 -20 1 -1 -5 -1
-20 -20 -20 -20 -20 -20 -20 -20 -20 -20 -20 -20 -20 -20 -20 -20 -20 -20 -20 -20 -20 -20 -20 -20 -20 11 -19 -20 -20 -20 -20 -20 -20 -20 -20 -20 -11 -1 -1 1 1 -0 -17 -10
-20 -20 -20 -20 -20 -20 -20 -20 -20 -20 -20 -20 -20 -20 -20 -20 -20 -20 -20 -20 -20 -20 -19 10 6 -20 -20 -20 -20 -20 -20 -20 -20 -20 -20 -20 -20 -20 -20 -20 -7 -0 -1 -20
-20 -20 -20 -20 -20 -20 -20 -20 -20 -20 -20 -20 -9 -20 -13 -20 -19 -20 -20 -20 -20 -17 20 19 -16 -20 -20 -20 -20 -20 -20 -20 -20 -20 -20 -20 -20 -20 -20 -20 -20 -20 -20 -20
-7 -3 -19 -20 -20 -20 -20 -20 -20 -20 -20 -20 -20 -20 -19 -16 1 13 -14 -20 -18 15 9 -14 6 -1 -20 -17 -17 -20 -19 -20 -20 -20 -20 -20 -20 -20 -20 -20 -20 -20 -20 -20
-12 2 -12 -20 -20 -20 -20 -20 -20 -20 -20 -20 -20 -20 -20 -20 -20 -14 7 9 -1 -15 -18 -19 -20 -20 -20 -12 0 -20 -17 -9 -19 -20 -20 -20 -20 -20 -20 -20 -20 -20 -20 -20
-20 -20 -18 -17 -20 -20 -20 4 -19 -20 -20 -20 -20 -16 -20 -20 -20 -15 -20 -20 -15 -11 -17 -14 -17 -20 -20 -5 -10 -20 -20 -20 -20 -20 -20 -20 -20 -20 -20 -20 -20 -20 -20 -20
-20 -20 -20 1 -20 -2 -8 3 -6 -20 -20 -20 -17 -17 -20 -20 -20 -20 -20 -20 -20 1 -9 -19 -16 2 -13 -8 -20 -20 -20 -20 -20 -20 -20 -20 -20 -20 -20 -20 -20 -20 -20 -20
-20 -20 -14 -9 -8 -20 -19 -12 -20 -20 -20 -16 -20 -13 -1 -20 -20 -20 -20 -20 -20 -11 -19 -20 -11 -6 -1 -17 -20 -20 -20 -20 -20 -20 -20 -20 -20 -20 -20 -20 -20 -20 -20 -20
-20 -20 -20 -19 -2 -19 -20 -18 -15 -19 -14 -20 -20 -20 -20 -20 -20 -20 -20 -19 -14 -20 -20 -20 -16 -20 -20 -20 -20 -20 -20 -20 -20 -20 -20 -20 -20 -20 -20 -20 -20 -20 -20 -20
-20 -20 -20 -20 -20 -20 -20 -20 -20 -20 -20 -19 -20 -20 -20 -20 -20 -20 -20 -20 -9 -13 -20 -20 -20 -20 -20 -20 -20 -20 -20 -20 -20 -20 -20 -20 -20 -20 -20 -20 -20 -20 -20 -20
-20 -20 -20 -20 -20 -20 -20 -20 -20 -20 -17 -14 -20 -20 -20 -20 -20 -18 -20 -20 -20 -17 -20 -20 -20 -20 -20 -20 -20 -20 -20 -20 -20 -20 -20 -20 -20 -20 -20 -20 -20 -20 -20 -20
-20 -20 -20 -20 -20 -20 -20 -20 -20 -20 -20 -20 -20 -20 -20 -20 -20 -20 -20 -20 -20 -20 -20 -20 -20 -20 -20 -20 -20 -20 -20 -20 -20 -20 -20 -20 -20 -20 -20 -20 -20 -20 -20 -20